Overview Statistics Trail Chart Weather Telemetry Raw packets
 

This is the latest recevied weather packets stored in our database for station/object S51FO-6. If no packets are shown the sender has not sent any weather packets the latest 10 day(s).

<< 1 2 3 4 5 6 >>
Time Temp. Humidity Pressure Rain* Wind** Luminosity Snow
1788530978 23.89° C 34% - 0 mm - - -
1788530378 25° C 33% - 0 mm - - -
1788529778 23.89° C 34% - 0 mm - - -
1788529178 24.44° C 34% - 0 mm - - -
1788528578 24.44° C 34% - 0 mm - - -
1788527978 25° C 32% - 0 mm - - -
1788527378 24.44° C 32% - 0 mm - - -
1788526178 25° C 31% - 0 mm - - -
1788525578 25° C 32% - 0 mm - - -
1788524997 24.44° C 32% - 0 mm - - -
1788524378 25.56° C 32% - 0 mm - - -
1788523778 24.44° C 32% - 0 mm - - -
1788523178 24.44° C 33% - 0 mm - - -
1788522578 25.56° C 30% - 0 mm - - -
1788521978 24.44° C 32% - 0 mm - - -
1788521378 24.44° C 32% - 0 mm - - -
1788519578 25° C 31% - 0 mm - - -
1788517178 24.44° C 31% - 0 mm - - -
1788516578 25° C 33% - 0 mm - - -
1788515978 24.44° C 34% - 0 mm - - -
1788515378 23.89° C 30% - 0 mm - - -
1788514778 23.89° C 33% - 0 mm - - -
1788514178 23.33° C 36% - 0 mm - - -
1788513578 23.33° C 31% - 0 mm - - -
1788512379 23.89° C 31% - 0 mm - - -

* Rain latest hour (hover to see other rain measurements)
** Current wind speed in m/s (hover to see current wind gust speed)